This is the latest recevied weather packets stored in our database for station/object N9WHM. If no packets are shown the sender has not sent any weather packets the latest 10 day(s).
| Time | Temp. | Humidity | Pressure | Rain* | Wind** | Luminosity | Snow |
|---|---|---|---|---|---|---|---|
| 1778233564 | 10° C | 51% | 1009.2 hPa | 0 mm | - | 0 W/m² | - |
| 1778233261 | 10.56° C | 52% | 1009.2 hPa | 0 mm | - | 0 W/m² | - |
| 1778232959 | 10.56° C | 49% | 1009.3 hPa | 0 mm | - | 0 W/m² | - |
| 1778232656 | 10° C | 48% | 1008.9 hPa | 0 mm | - | 0 W/m² | - |
| 1778232353 | 10° C | 51% | 1009 hPa | 0 mm | - | 0 W/m² | - |
| 1778232052 | 9.44° C | 53% | 1008.7 hPa | 0 mm | - | 0 W/m² | - |
| 1778231748 | 10° C | 51% | 1008.9 hPa | 0 mm | - | 0 W/m² | - |
| 1778231445 | 10° C | 48% | 1008.8 hPa | 0 mm | - | 0 W/m² | - |
| 1778231144 | 10° C | 49% | 1008.8 hPa | 0 mm | - | 0 W/m² | - |
| 1778230839 | 10° C | 50% | 1008.9 hPa | 0 mm | - | 0 W/m² | - |
| 1778230536 | 10° C | 51% | 1008.8 hPa | 0 mm | - | 0 W/m² | - |
| 1778230234 | 9.44° C | 57% | 1009.1 hPa | 0 mm | - | 0 W/m² | - |
| 1778229930 | 9.44° C | 57% | 1009.1 hPa | 0 mm | - | 0 W/m² | - |
| 1778229627 | 9.44° C | 56% | 1009.3 hPa | 0 mm | - | 0 W/m² | - |
| 1778229325 | 9.44° C | 61% | 1009.3 hPa | 0 mm | - | 0 W/m² | - |
| 1778229021 | 9.44° C | 60% | 1009.2 hPa | 0 mm | - | 0 W/m² | - |
| 1778228717 | 9.44° C | 56% | 1009.3 hPa | 0 mm | - | 0 W/m² | - |
| 1778228415 | 9.44° C | 55% | 1009.4 hPa | 0 mm | - | 0 W/m² | - |
| 1778228112 | 9.44° C | 56% | 1009.5 hPa | 0 mm | - | 0 W/m² | - |
| 1778227808 | 9.44° C | 55% | 1009.6 hPa | 0 mm | - | 0 W/m² | - |
| 1778227506 | 8.89° C | 55% | 1009.9 hPa | 0 mm | - | 0 W/m² | - |
| 1778227203 | 8.89° C | 55% | 1010.1 hPa | 0 mm | - | 0 W/m² | - |
| 1778226899 | 9.44° C | 54% | 1010 hPa | 0 mm | - | 0 W/m² | - |
| 1778226598 | 9.44° C | 53% | 1010 hPa | 0 mm | - | 0 W/m² | - |
| 1778226295 | 9.44° C | 54% | 1010 hPa | 0 mm | - | 0 W/m² | - |
* Rain latest hour (hover to see other rain measurements)
** Current wind speed in m/s (hover to see current wind gust speed)